Regional Weather Roundup
Issued by NWS

Home | Current Version | Previous Version | Graphics & Text | Print | Product List | Glossary On
Versions: 1 2 3 4 5 6 7 8 9 10 11 12 13 14 15 16 17 18 19 20 21 22 23 24 25 26 27 28 29 30 31 32 33 34 35 36 37 38 39 40 41 42 43 44 45 46 47 48 49 50
000
ASUS43 KTOP 020508
RWRKS

WEATHER ROUNDUP FOR KANSAS
NATIONAL WEATHER SERVICE GOODLAND KS
1200 AM CDT SAT AUG 02 2014

NOTE:  "FAIR" INDICATES FEW OR NO CLOUDS BELOW 12,000 FEET WITH NO
SIGNIFICANT WEATHER AND/OR OBSTRUCTIONS TO VISIBILITY.

KSZ001>006-013>018-027>032-041>047-020600-
NORTHWEST KANSAS

CITY           SKY/WX    TMP DP  RH WIND       PRES   REMARKS
GOODLAND       PTCLDY    69  54  58 S10       30.20S
HAYS           PTCLDY    66  52  59 CALM      30.12R
HILL CITY      CLEAR     65  55  70 CALM      30.14R
RUSSELL        CLEAR     69  54  58 N5        30.10R
$$

KSZ061>065-074>080-084>089-020600-
SOUTHWEST KANSAS

CITY           SKY/WX    TMP DP  RH WIND       PRES   REMARKS
DODGE CITY     MOCLDY    70  59  68 E3        30.14S
ELKHART          N/A     67  56  68 SE7         N/A
GARDEN CITY    MOCLDY    72  58  61 SE7       30.16R
GREAT BEND       N/A     64  57  77 CALM      30.10R
LIBERAL        PTCLDY    73  55  53 SE3       30.18R
PRATT          MOCLDY    72  54  53 NE6       30.11S
$$

KSZ066>073-081>083-090>101-020600-
SOUTHEAST KANSAS

CITY           SKY/WX    TMP DP  RH WIND       PRES   REMARKS
CHANUTE        CLEAR     65  62  90 SE3       30.08S
COFFEYVILLE    CLEAR     67  64  90 E3        30.07S
HUTCHINSON     CLEAR     69  51  52 N5        30.07S
MEDICINE LODGE   N/A     75  64  68 SE6       30.07R
NEWTON         PTCLDY    68  55  64 S6        30.10S
PARSONS        CLEAR     65  63  93 CALM      30.09R
WICHITA INTL   PTCLDY    70  64  81 S5        30.07R
WICHITA JABRA  PTCLDY    71  66  84 S7        30.07R
WICHITA MCCONL PTCLDY    71  70  95 SE6       30.07S
WINFIELD       CLEAR     71  66  84 SE7       30.08S
$$

KSZ007>012-019>026-033>040-048>060-102>105-020600-
NORTHEAST KANSAS

CITY           SKY/WX    TMP DP  RH WIND       PRES   REMARKS
CONCORDIA      CLEAR     69  63  81 NE6       30.09R
EMPORIA        CLEAR     71  64  78 S8        30.08R
LAWRENCE       CLEAR     69  62  78 E3        30.09R
MANHATTAN      CLEAR     74  65  73 E5        30.06R
MARYSVILLE     CLEAR     70  63  78 NE3       30.09S
OLATHE IND     CLEAR     70  62  76 E5        30.10R
OLATHE EXE     CLEAR     71  62  73 E6        30.09S
SALINA         CLEAR     72  58  61 NW8       30.06S
TOPEKA BILLARD CLEAR     73  64  73 E3        30.08R
TOPEKA FORBES  CLEAR     70  63  78 SE6       30.08S
$$



USA.gov is the U.S. government's official web portal to all federal, state and local government web resources and services.